Torna al catalogo

STARLINK-11654

AttivoComunicazioniVLEO
NORAD 63265·PAYLOAD·🇺🇸 United States

Lanciato Mar 15, 2025 da Cape Canaveral Space Force Station

Loading…

Prossimi Passaggi (prossime 24 ore)

TLE

AggiornatoSource: CelesTrak SupGP

Epoca: Sep 15, 2026, 02:18 UTC

1 63265C 25053A   26258.09631944 -.00082438  00000+0 -63980-3 0  2589
2 63265  43.0009  50.5071 0001679 268.9021 272.8098 15.70897431    11

Traccia STARLINK-11654 in tempo reale con AllMySat

Download on the App Store